Probability
4 4 4 4 4 2 1 1 1 0 0 0 1 0 0 0 0 0 0 0 0 0 0 0 0 0 0 0 0 0 0 0 0 0 0 0 0 0
6 5 5 6 5 4 3 3 2 1 1 1 1 1 0 0 0 0 0 0 0 0 0 0 0 0 0 0 0 0 0 0 0 0 0 0 0 0
10 9 7 6 7 6 5 4 3 3 2 1 1 1 1 1 0 0 0 0 0 0 0 0 0 0 0 0 0 0 0 0 0 0 0 0 0 0
14 11 7 6 7 7 5 3 3 3 2 2 2 3 2 1 1 1 1 1 1 0 0 0 0 0 0 0 0 0 0 0 0 0 0 0 0 0
13 10 5 4 6 5 4 2 2 2 2 3 3 3 3 3 2 1 2 3 1 0 0 0 0 0 0 0 0 0 0 0 0 0 0 0 0 0
9 7 3 2 3 4 3 1 1 2 3 3 3 3 3 4 3 1 1 2 2 0 0 0 0 0 0 0 0 0 0 0 0 0 0 0 0 0
6 5 2 1 1 2 2 1 2 3 4 3 2 2 3 4 4 2 1 2 3 2 1 1 0 1 2 2 0 0 0 0 0 0 0 0 0 0
6 5 3 1 1 1 1 1 1 2 3 2 1 1 2 3 4 4 4 4 6 6 5 3 1 3 5 4 1 0 0 0 0 0 0 0 0 0
7 6 5 4 3 3 2 1 1 1 1 1 1 1 3 4 5 7 8 9 10 10 8 4 3 5 6 4 1 0 0 0 0 0 0 0 0 0
6 7 8 7 5 4 5 5 6 4 2 0 1 2 3 5 6 8 10 11 12 11 8 5 5 5 5 5 2 0 0 0 0 0 0 0 0 0
8 8 8 8 6 4 6 9 9 7 3 1 1 1 2 2 4 6 8 8 7 8 9 8 7 6 6 5 3 2 1 0 0 0 0 0 0 0
12 10 8 6 3 2 5 8 9 7 5 3 2 1 1 1 2 4 5 4 2 3 7 9 8 6 4 3 3 3 2 1 1 0 0 0 0 0
13 12 8 3 1 1 2 5 6 6 6 6 5 4 4 5 3 2 3 3 2 2 5 6 5 4 3 1 2 3 3 3 2 1 0 0 0 0
12 11 7 2 0 0 1 2 3 3 6 7 7 5 5 5 4 2 2 2 2 2 3 3 3 4 3 1 1 2 3 3 3 2 1 0 0 0
7 6 4 1 0 0 0 1 1 3 5 6 5 4 2 2 2 1 1 1 1 1 2 3 4 4 3 2 1 1 2 3 4 4 2 0 0 0
2 2 2 1 0 0 0 0 1 3 4 4 3 2 1 1 0 1 1 0 0 1 2 3 5 5 4 3 2 1 1 3 5 5 3 1 0 0
1 1 2 2 1 1 1 0 0 1 1 1 1 2 2 1 0 0 1 0 0 1 2 4 5 5 3 2 1 1 1 3 5 5 3 1 0 0
0 1 2 3 3 2 1 0 0 0 0 0 0 1 1 1 0 0 1 1 0 0 1 3 3 2 1 0 0 0 0 1 2 3 2 0 0 0
0 0 1 2 2 1 0 0 0 0 0 0 0 1 1 1 0 0 1 2 1 0 1 2 2 1 0 0 0 0 0 0 0 0 0 0 0 0
0 0 1 2 2 1 1 1 0 0 0 0 1 2 2 2 1 1 2 2 1 0 0 1 2 1 0 0 0 0 0 0 0 0 0 0 0 0
0 0 0 1 2 3 2 1 0 0 0 0 1 2 3 3 3 2 3 2 1 0 0 1 2 1 0 0 0 0 0 0 0 0 0 0 0 0
0 0 0 0 1 3 2 1 0 0 0 0 0 1 1 2 2 2 2 2 1 0 0 1 1 1 0 0 0 0 0 0 0 0 0 0 0 0
0 0 0 0 1 2 2 1 0 0 0 0 0 0 0 1 1 1 1 1 1 0 0 0 1 0 0 0 0 0 0 0 0 0 0 0 0 0
Wind_Speed
9 9 8 6 5 5 5 5 5 5 5 5 4 4 4 4 5 7 7 10 11 10 10 10 9 9 9 9 9 9 10 10 10 10 11 11 12 12
7 8 8 7 5 5 6 5 6 6 5 3 3 4 3 4 6 7 7 8 11 11 11 10 10 10 10 10 10 10 10 10 11 11 11 11 11 12
10 10 10 8 6 6 6 6 6 6 6 5 4 3 4 6 4 6 7 7 8 13 12 11 11 10 10 10 10 10 10 10 10 10 11 11 11 11
11 10 10 8 8 7 6 7 6 5 7 7 5 4 6 6 5 6 7 7 7 10 12 11 11 10 10 10 10 10 10 10 10 10 10 10 11 11
10 10 10 10 10 8 8 7 6 7 6 7 7 4 5 5 5 7 8 5 8 7 11 12 11 11 11 10 10 10 10 10 9 9 10 10 10 10
10 10 10 10 10 9 8 8 7 7 6 7 7 6 5 5 5 7 7 7 7 7 6 6 9 11 12 12 11 11 10 9 9 9 9 9 9 9
9 9 10 9 8 7 7 7 7 7 7 7 7 6 6 5 6 6 6 6 6 6 6 6 7 8 10 12 13 11 10 9 9 9 9 9 10 10
9 9 9 9 10 9 8 6 6 8 8 7 7 6 5 6 5 6 6 7 7 5 6 7 7 7 7 7 8 11 10 10 10 10 10 10 10 11
8 8 8 8 10 10 10 9 9 9 8 8 8 7 6 5 6 8 7 7 8 5 5 8 7 7 7 4 7 8 9 9 10 10 10 10 11 11
8 9 8 7 8 8 8 9 9 9 10 9 8 7 6 5 5 7 7 7 8 8 6 8 7 7 6 4 7 9 9 9 10 10 10 10 11 11
8 7 8 8 6 6 7 8 8 8 8 8 7 5 3 2 4 6 7 7 8 7 5 7 7 7 7 7 5 11 11 10 11 11 11 11 11 11
6 6 6 6 5 7 8 8 9 8 7 6 7 7 7 7 7 8 7 8 7 7 3 4 6 6 7 6 4 4 7 10 12 12 12 12 10 9
5 5 5 8 6 7 7 6 6 5 6 6 6 6 5 5 6 6 6 6 7 6 3 3 5 6 7 7 6 6 6 6 6 8 11 12 12 10
4 3 3 8 8 7 6 4 4 4 5 4 4 4 4 3 3 3 3 4 4 5 5 5 5 5 7 8 8 6 6 7 7 7 7 6 10 14
1 2 3 6 7 5 5 4 5 4 4 4 3 3 3 2 2 2 3 4 5 6 5 4 6 6 7 8 8 8 8 7 6 6 7 7 7 7
3 4 5 5 4 2 3 3 2 2 3 3 2 2 2 2 3 3 3 3 4 5 5 5 6 7 7 9 8 8 8 7 6 6 7 8 8 8
4 3 2 3 2 2 2 1 1 2 2 2 2 2 2 3 3 3 3 4 5 5 4 4 5 6 8 8 8 8 7 7 6 6 7 9 9 8
4 3 2 2 2 1 1 1 1 1 1 2 2 2 3 3 3 3 3 4 5 5 5 4 4 5 6 6 7 8 8 7 7 6 7 9 10 8
3 2 1 1 1 1 0 0 0 0 1 1 2 2 3 3 3 3 3 4 4 4 4 4 4 5 7 8 5 5 7 7 8 8 8 8 10 9
3 3 2 2 2 1 1 1 1 1 1 1 2 2 3 3 3 3 3 4 4 5 5 4 4 5 7 8 8 6 6 7 7 8 9 9 9 9
4 4 3 3 3 3 3 2 2 2 2 2 2 2 3 3 3 3 3 3 5 5 5 5 4 4 7 7 7 7 5 4 6 7 9 9 10 9
5 5 5 4 4 4 3 3 2 2 2 2 3 3 3 3 4 4 4 4 4 4 5 5 4 4 5 6 7 8 8 7 6 9 10 9 8 9
6 5 5 5 5 4 3 4 4 4 4 3 3 3 4 4 4 4 4 4 4 5 5 5 5 4 5 6 7 7 9 9 7 7 6 7 11 13
Wind_Direction
220 216 228 230 228 234 240 247 255 254 236 204 217 202 220 226 168 217 224 189 201 214 221 227 231 235 238 241 244 247 249 251 253 254 257 259 259 261
224 226 224 227 219 226 234 238 248 261 269 249 219 217 211 238 186 228 233 176 202 214 221 226 230 235 238 241 244 246 247 249 252 254 256 257 257 258
217 217 218 227 221 224 227 233 238 246 255 258 244 213 206 249 215 228 232 225 211 201 212 221 229 233 237 241 243 246 248 249 251 254 256 256 257 258
218 217 219 216 218 232 230 233 235 243 252 258 256 231 217 230 231 239 241 232 243 188 199 215 224 229 234 237 238 241 245 248 250 252 254 255 257 259
217 216 219 218 218 222 225 232 231 231 240 251 248 240 231 227 229 236 243 250 256 209 194 208 216 224 228 231 234 236 239 244 248 251 254 256 258 260
217 217 219 219 221 222 221 227 233 237 233 244 248 235 227 218 231 242 239 222 242 253 232 216 207 214 223 227 230 232 235 239 244 248 251 254 256 259
217 219 221 221 226 227 231 222 222 229 233 236 243 241 234 223 234 242 249 250 239 245 250 241 220 222 216 220 222 224 228 234 238 242 246 251 255 258
217 219 219 212 213 214 234 244 242 234 239 245 246 245 246 244 249 257 260 259 257 233 245 254 251 250 244 243 194 195 215 228 235 240 245 251 256 258
218 218 224 216 205 215 210 217 231 239 245 251 254 257 251 244 253 252 252 265 273 275 257 262 256 256 257 245 166 189 212 227 237 243 249 253 257 259
222 221 222 223 216 215 217 217 224 222 220 228 245 254 259 267 251 258 269 259 257 252 250 265 269 265 266 256 180 197 214 228 238 247 251 254 258 261
223 221 221 221 196 190 217 227 232 232 218 220 237 252 286 287 273 260 255 257 260 255 228 253 270 275 272 264 216 193 212 227 238 243 246 250 255 263
210 210 207 218 182 184 216 226 233 238 238 211 213 224 230 224 220 241 255 259 266 266 239 249 272 281 276 265 263 231 227 226 230 235 238 242 248 263
207 207 193 172 177 189 217 232 239 249 241 233 224 220 219 223 217 222 242 262 269 270 285 262 276 280 277 282 282 279 278 274 257 247 235 233 233 243
217 208 154 154 169 183 205 232 238 240 241 236 235 231 227 229 232 232 236 261 278 283 299 297 282 286 286 284 284 282 280 279 279 282 285 252 232 233
218 92 114 150 167 175 197 215 218 225 229 229 233 236 243 247 245 234 226 232 246 254 258 261 269 278 277 280 285 289 289 287 281 280 283 284 287 279
189 145 146 149 160 158 164 182 211 240 247 235 232 239 245 238 234 244 251 250 253 254 235 238 250 264 270 276 279 282 286 288 289 288 293 289 284 281
162 161 165 159 162 168 170 170 186 202 223 246 251 249 249 250 251 251 259 262 264 272 273 255 245 249 259 269 275 278 285 288 291 304 298 291 290 289
146 140 146 161 170 175 177 178 183 211 241 245 253 258 260 260 262 264 267 270 273 276 279 283 282 275 268 254 244 275 286 295 302 301 293 291 293 297
127 123 125 125 121 123 100 14 336 359 303 281 277 278 275 271 269 273 275 276 280 284 285 285 284 285 288 290 274 238 288 298 295 292 289 291 294 298
83 84 78 72 71 62 46 29 19 15 337 307 306 304 298 291 288 286 286 291 291 290 288 285 287 295 297 301 304 293 258 282 294 297 300 299 295 290
68 67 62 53 46 41 31 25 27 22 8 329 331 325 315 307 304 300 297 293 287 291 294 300 325 301 287 283 282 288 298 262 273 288 301 300 303 303
58 55 51 49 46 40 34 22 18 23 10 352 357 345 334 323 316 310 310 307 303 301 302 306 312 300 294 292 296 304 307 309 280 249 251 261 290 303
51 49 44 40 44 38 34 31 25 21 13 1 353 346 341 331 320 315 313 310 310 309 306 303 304 300 296 294 297 299 302 305 305 301 285 242 237 249